Birmingham, United Kingdom

10:29 AM BST on September 28, 2016 (GMT +0100)
Birmingham

Weather History for EGBB - October, 2012

Change the Weather History Date:

Monday, October 29, 2012

  Actual Average Record
Temperature  
Mean Temperature 48 °F -  
Max Temperature 53 °F 53 °F 57 °F (2001)
Min Temperature 41 °F 42 °F 21 °F (1997)
Degree Days  
Heating Degree Days 18    
Moisture  
Dew Point 44 °F    
Average Humidity 89    
Maximum Humidity 100    
Minimum Humidity 76    
Precipitation  
Precipitation 0.00 in - - ()
Sea Level Pressure  
Sea Level Pressure 29.74 in    
Wind  
Wind Speed 8 mph ()    
Max Wind Speed 12 mph    
Max Gust Speed -    
Visibility 6.2 miles    
Events      
Averages and records for this station are not official NWS values.
T = Trace of Precipitation, MM = Missing Value Source: Averaged Metar Reports

Daily Weather History Graph

Daily Weather History Graph

Search for Another Location

Airport or City:

Trip Planner

Search our weather history database for the weather conditions in past years. The results will help you decide how hot, cold, wet, or windy it might be!

Date:

Astronomy

Oct. 29, 2012 Rise Set
Actual Time 6:58 AM GMT 4:42 PM GMT
Civil Twilight 6:22 AM GMT 5:18 PM GMT
Nautical Twilight 5:42 AM GMT 5:58 PM GMT
Astronomical Twilight 5:02 AM GMT 6:37 PM GMT
Moon 4:21 PM GMT (10/29) 6:37 AM GMT (10/29)
Length of Visible Light 10h 55m
Length of Day
9h 44m
Full, 100% of the Moon is Illuminated
Oct 29
Full
Oct 29
Full
Nov 7
Last Quarter
Nov 13
New
Nov 20
First Quarter

Hourly Weather History & Observations

Time (GMT) Temp. Windchill Dew Point Humidity Pressure Visibility Wind Dir Wind Speed Gust Speed Precip Events Conditions
12:20 AM 44.6 °F 39.2 °F 44.6 °F 100% 29.74 in 6.2 mi South 10.4 mph - N/A   Partly Cloudy
12:50 AM 44.6 °F 38.8 °F 44.6 °F 100% 29.74 in 6.2 mi SSW 11.5 mph - N/A   Scattered Clouds
1:20 AM 46.4 °F 41.1 °F 44.6 °F 93% 29.74 in 6.2 mi SSW 11.5 mph - N/A   Light Drizzle
1:50 AM 44.6 °F 39.7 °F 44.6 °F 100% 29.74 in 6.2 mi SSW 9.2 mph - N/A   Mostly Cloudy
2:20 AM 44.6 °F 39.2 °F 42.8 °F 93% 29.74 in 6.2 mi SSW 10.4 mph - N/A   Scattered Clouds
2:50 AM 44.6 °F 39.2 °F 42.8 °F 93% 29.74 in 6.2 mi South 10.4 mph - N/A   Light Drizzle
3:20 AM 44.6 °F 38.8 °F 42.8 °F 93% 29.74 in 6.2 mi SSW 11.5 mph - N/A   Light Drizzle
3:50 AM 44.6 °F 39.7 °F 42.8 °F 93% 29.74 in 6.2 mi SSW 9.2 mph - N/A   Partly Cloudy
4:20 AM 44.6 °F 39.7 °F 44.6 °F 100% 29.74 in 6.2 mi South 9.2 mph - N/A   Mostly Cloudy
4:50 AM 44.6 °F 39.7 °F 44.6 °F 100% 29.71 in 6.2 mi South 9.2 mph - N/A   Mostly Cloudy
5:20 AM 44.6 °F 39.7 °F 42.8 °F 93% 29.71 in 6.2 mi South 9.2 mph - N/A   Mostly Cloudy
5:50 AM 44.6 °F 40.7 °F 42.8 °F 93% 29.71 in 6.2 mi SSW 6.9 mph - N/A   Scattered Clouds
6:20 AM 44.6 °F 41.4 °F 42.8 °F 93% 29.74 in 6.2 mi SSW 5.8 mph - N/A   Mostly Cloudy
6:50 AM 44.6 °F 40.2 °F 42.8 °F 93% 29.74 in 6.2 mi SSW 8.1 mph - N/A   Mostly Cloudy
7:20 AM 44.6 °F 40.2 °F 42.8 °F 93% 29.74 in 6.2 mi SW 8.1 mph - N/A   Mostly Cloudy
7:50 AM 44.6 °F 40.2 °F 42.8 °F 93% 29.74 in 6.2 mi SSW 8.1 mph - N/A   Scattered Clouds
8:20 AM 46.4 °F 42.4 °F 44.6 °F 93% 29.74 in 6.2 mi SW 8.1 mph - N/A   Mostly Cloudy
8:50 AM 46.4 °F 42.9 °F 44.6 °F 93% 29.74 in 6.2 mi SW 6.9 mph - N/A   Mostly Cloudy
9:20 AM 46.4 °F 42.9 °F 44.6 °F 93% 29.74 in 6.2 mi WSW 6.9 mph - N/A   Scattered Clouds
9:50 AM 48.2 °F - 44.6 °F 87% 29.74 in 6.2 mi WSW 6.9 mph - N/A   Scattered Clouds
10:20 AM 48.2 °F - 46.4 °F 93% 29.74 in 6.2 mi WSW 8.1 mph - N/A   Scattered Clouds
10:50 AM 50.0 °F - 46.4 °F 87% 29.74 in 6.2 mi WSW 9.2 mph - N/A   Mostly Cloudy
11:20 AM 50.0 °F - 46.4 °F 87% 29.74 in 6.2 mi WSW 8.1 mph - N/A   Mostly Cloudy
11:50 AM 51.8 °F - 48.2 °F 88% 29.74 in 6.2 mi WSW 9.2 mph - N/A   Mostly Cloudy
12:20 PM 51.8 °F - 44.6 °F 76% 29.74 in 6.2 mi WSW 9.2 mph - N/A   Scattered Clouds
12:50 PM 51.8 °F - 46.4 °F 82% 29.74 in 6.2 mi WSW 8.1 mph - N/A   Mostly Cloudy
1:20 PM 53.6 °F - 46.4 °F 77% 29.74 in 6.2 mi WSW 10.4 mph - N/A   Mostly Cloudy
1:50 PM 51.8 °F - 44.6 °F 76% 29.74 in 6.2 mi West 8.1 mph - N/A   Mostly Cloudy
2:20 PM 51.8 °F - 46.4 °F 82% 29.74 in 6.2 mi West 5.8 mph - N/A   Scattered Clouds
2:50 PM 51.8 °F - 44.6 °F 76% 29.74 in 6.2 mi West 6.9 mph - N/A   Mostly Cloudy
3:20 PM 51.8 °F - 44.6 °F 76% 29.74 in 6.2 mi WNW 8.1 mph - N/A   Mostly Cloudy
3:50 PM 51.8 °F - 44.6 °F 76% 29.74 in 6.2 mi NW 5.8 mph - N/A   Scattered Clouds
4:20 PM 50.0 °F - 44.6 °F 82% 29.74 in 6.2 mi WNW 5.8 mph - N/A   Partly Cloudy
4:50 PM 48.2 °F - 42.8 °F 82% 29.71 in 6.2 mi NW 6.9 mph - N/A   Partly Cloudy
5:20 PM 44.6 °F 42.2 °F 41.0 °F 87% 29.71 in 6.2 mi NW 4.6 mph - N/A   Partly Cloudy
5:50 PM 48.2 °F - 42.8 °F 82% 29.74 in 6.2 mi NNW 8.1 mph - N/A   Scattered Clouds
6:20 PM 46.4 °F 43.5 °F 42.8 °F 87% 29.74 in - NW 5.8 mph - N/A   Clear
6:50 PM 46.4 °F 43.5 °F 42.8 °F 87% 29.74 in 6.2 mi WNW 5.8 mph - N/A   Partly Cloudy
7:20 PM 44.6 °F 41.4 °F 41.0 °F 87% 29.74 in - West 5.8 mph - N/A   Clear
7:50 PM 44.6 °F 41.4 °F 41.0 °F 87% 29.74 in 6.2 mi West 5.8 mph - N/A   Partly Cloudy
8:20 PM 42.8 °F 38.6 °F 41.0 °F 93% 29.74 in - West 6.9 mph - N/A   Clear
8:50 PM 42.8 °F 40.1 °F 41.0 °F 93% 29.74 in - West 4.6 mph - N/A   Clear
9:20 PM 44.6 °F 40.7 °F 41.0 °F 87% 29.74 in - West 6.9 mph - N/A   Clear
9:50 PM 44.6 °F 40.7 °F 42.8 °F 93% 29.74 in 6.2 mi West 6.9 mph - N/A   Mostly Cloudy
10:20 PM 46.4 °F 42.4 °F 42.8 °F 87% 29.74 in 6.2 mi WNW 8.1 mph - N/A   Mostly Cloudy
10:50 PM 44.6 °F 39.2 °F 42.8 °F 93% 29.74 in 6.2 mi WNW 10.4 mph - N/A   Partly Cloudy
11:20 PM 42.8 °F 38.6 °F 41.0 °F 93% 29.74 in - WNW 6.9 mph - N/A   Clear
11:50 PM 41.0 °F 37.1 °F 39.2 °F 93% 29.74 in - WNW 5.8 mph - N/A   Clear